175  
NZUS99 KSGF 291807  
HRRSGF  
 
HOURLY WEATHER  
NATIONAL WEATHER SERVICE SPRINGFIELD MO  
100 PM CDT WED MAR 29 2017  
   
.....SGF CWA...
 
 
 
CITY SKY/WX TMP DP RH WIND PRES REMARKS  
SPRINGFIELD MOSUNNY 68 59 73 SE24G36 29.72F  
6HR MIN TEMP: 55; 6HR MAX TEMP: 68; 6HR PCP: 0.02;  
 
JOPLIN PTSUNNY 70 59 68 S17G28 29.67F  
6HR MIN TEMP: 56; 6HR MAX TEMP: 70;  
 
WEST PLAINS MOSUNNY 66 57 72 SE15G25 29.83F  
6HR MIN TEMP: 54; 6HR MAX TEMP: 66; 6HR PCP: TRACE;  
 
ROLLA CLOUDY 63 55 75 E14G22 29.82F  
6HR MIN TEMP: 52; 6HR MAX TEMP: 64; 6HR PCP: 0.01;  
 
OSAGE BEACH CLOUDY 62 55 77 E9 29.79F  
BRANSON PTSUNNY 66 59 77 SE17G29 29.77F  
   
.....SURROUNDING SGF CWA...
 
 
 
CITY SKY/WX TMP DP RH WIND PRES REMARKS  
CHANUTE CLOUDY 68 59 73 S16 29.63F  
PARSONS CLOUDY 71 57 61 S14G26 29.63F  
COFFEYVILLE CLOUDY 71 59 65 S21G31 29.63F  
EMPORIA CLOUDY 59 58 96 E14 29.62F  
GROVE OK CLOUDY 72 57 60 S18G28 29.69R  
ROGERS AR MOSUNNY 74 57 55 S23G30 29.70F  
SILOAM SPRINGS CLOUDY 70 55 60 S17G30 29.70S  
HARRISON AR MOSUNNY 69 61 75 SE20G26 29.75F  
NEAR YELLVILLE CLOUDY 70 57 64 SE13 29.77F  
   
.....KANSAS AND MISSOURI...
 
 
 
CITY SKY/WX TMP DP RH WIND PRES REMARKS  
KANSAS CTY INT CLOUDY 50 49 96 E21 29.74F  
DOWNTOWN KC CLOUDY 53 51 93 E16G23 29.73F  
COLUMBIA CLOUDY 51 49 92 E18G29 29.85F  
SEDALIA LGT RAIN 54 53 97 E22G30 29.79F  
ST JOSEPH CLOUDY 49 48 97 E14G24 29.78F  
ST LOUIS LGT RAIN 57 50 77 E15 29.99F  
SPIRIT OF STL CLOUDY 56 51 84 E17G23 29.95F  
KIRKSVILLE LGT RAIN 48 47 96 E17G29 29.90F  
WICHITA LGT RAIN 56 55 97 SE3 29.61S FOG  
TOPEKA CLOUDY 53 52 96 E16 29.69F  
OLATHE CLOUDY 56 55 97 E16G24 29.70F  
   
.....TENNESSEE...
 
 
 
CITY SKY/WX TMP DP RH WIND PRES REMARKS  
MEMPHIS PTSUNNY 80 61 52 S17G24 29.92F  
NASHVILLE MOSUNNY 77 53 43 E8 30.04F  
   
.....ARKANSAS....
 
 
 
CITY SKY/WX TMP DP RH WIND PRES REMARKS  
FAYETTEVILLE CLOUDY 70 57 63 S20G30 29.71F  
FT SMITH PTSUNNY 74 54 49 S21G35 29.73R  
LITTLE ROCK CLOUDY 78 61 55 S20 29.81F  
   
.....OKLAHOMA....
 
 
 
CITY SKY/WX TMP DP RH WIND PRES REMARKS  
TULSA PTSUNNY 71 57 61 S22G31 29.62F  
PONCA CITY CLOUDY 59 55 87 S12G18 29.64S  
MCALESTER PTSUNNY 71 56 58 S17G30 29.70R  
OKLAHOMA CITY CLOUDY 55 52 89 SW7 29.70R  
   
.....IOWA.........
 
 
 
CITY SKY/WX TMP DP RH WIND PRES REMARKS  
DES MOINES LGT RAIN 44 42 93 NE16G28 29.97F FOG  
QUAD CITIES CLOUDY 46 42 86 E18 30.09F  
   
.....ILLINOIS.....
 
 
 
CITY SKY/WX TMP DP RH WIND PRES REMARKS  
QUINCY CLOUDY 50 47 89 E18G29 29.96F  
CHICAGO CLOUDY 47 35 63 NE10 30.23F  
 
CLICK HERE TO GO TO PREVIOUS BULLETINS.

The Nexlab MO Page
The Nexlab KS Page Main Text Page